Theta_e
279 280 280 281 282 284 285 287 288 290 291 294 294 296 298 298 299 299 299 300 300 302 302 302 307 312 312 315 315 315 314 313 308 288 289 290 289 291 292 294 297 299 299
279 280 280 280 282 284 285 288 290 289 291 293 292 293 294 294 294 296 295 297 297 298 300 301 303 307 310 313 314 312 313 314 302 290 285 286 286 286 289 289 290 294 297
279 279 279 280 282 283 286 288 289 289 290 291 290 290 290 291 292 292 292 293 294 294 296 297 300 303 304 309 311 312 313 308 301 292 286 285 285 286 285 286 286 286 288
278 278 279 281 283 284 286 287 288 287 288 288 288 288 288 289 290 290 290 290 289 289 290 291 292 294 303 305 307 310 309 306 298 294 287 285 286 286 287 286 284 285 284
276 277 279 281 283 284 285 286 286 286 285 286 286 286 287 288 289 288 288 287 287 286 286 287 287 287 289 296 305 305 305 302 296 292 286 285 285 285 286 286 284 283 282
274 277 279 281 282 282 283 284 284 284 284 284 284 285 285 287 289 289 287 285 285 285 285 285 286 286 288 291 292 294 301 299 295 293 287 288 286 288 285 286 284 284 282
273 277 279 279 280 281 282 283 283 283 283 283 284 285 285 285 287 287 285 284 284 284 284 285 285 285 285 285 288 289 288 291 293 292 291 289 287 287 287 285 284 284 281
275 277 278 278 278 280 280 281 282 283 282 282 282 283 284 285 287 286 285 283 283 283 283 284 284 285 286 285 285 284 285 285 286 286 286 286 286 287 287 286 283 280 280
275 276 278 278 278 278 278 279 279 279 279 281 282 282 283 284 287 286 284 283 283 283 283 283 284 284 287 286 282 280 279 280 285 287 288 289 289 289 287 285 282 281 278
275 278 279 279 278 278 279 279 279 279 279 280 280 282 283 283 286 286 284 283 282 282 282 283 285 284 285 285 282 280 277 277 278 278 278 278 278 280 281 280 282 280 278
277 278 279 279 279 279 279 279 279 279 279 279 279 280 281 282 284 285 285 281 281 280 281 281 282 285 284 284 282 279 277 277 277 276 275 274 273 272 272 273 274 277 276
275 276 276 277 279 279 278 278 278 278 277 277 277 278 279 280 283 284 284 283 282 279 279 280 281 283 282 282 280 281 280 277 274 273 272 271 270 269 269 269 269 269 270
272 272 273 275 276 277 276 276 275 275 275 275 275 275 276 278 278 281 282 281 280 278 278 278 278 277 277 277 278 277 274 273 272 270 269 268 268 269 269 269 268 267 266
269 269 271 272 273 274 274 274 273 273 273 273 273 273 274 276 276 276 276 275 276 274 275 273 275 275 275 272 270 270 270 270 269 268 267 266 267 266 265 265 265 264 265
268 269 270 271 271 272 273 272 273 273 273 271 269 272 271 274 278 279 276 273 272 273 268 270 269 268 267 267 266 266 267 267 266 266 265 265 265 265 263 263 262 263 262
267 267 267 268 267 269 270 273 280 280 280 280 280 276 277 281 282 281 280 279 277 274 265 266 265 265 264 264 264 263 263 263 264 264 263 263 263 263 262 262 262 261 260
268 268 267 268 267 267 266 266 265 271 278 278 279 279 279 279 279 280 279 277 275 269 263 262 262 263 262 262 261 261 260 259 259 260 260 260 260 259 261 259 259 259 256
263 265 266 265 264 264 265 264 263 262 261 262 269 274 277 277 277 276 274 269 261 260 255 258 258 259 260 260 259 257 257 257 256 257 256 255 255 256 256 255 254 253 252
263 263 263 262 262 263 263 262 261 258 257 255 257 266 263 271 272 271 269 257 254 253 252 255 254 256 256 255 255 254 254 253 251 251 250 252 250 255 250 251 253 252 251
261 263 262 262 260 260 261 261 259 257 256 254 254 255 254 257 254 253 254 251 254 252 251 253 249 250 250 251 251 251 251 251 250 250 248 249 249 252 251 249 249 251 248
263 261 262 260 261 261 261 261 259 256 255 253 254 254 265 254 251 250 249 249 250 250 250 250 247 247 246 246 247 248 249 249 247 247 248 246 247 248 245 249 247 246 246
263 262 260 261 260 260 259 259 258 256 255 254 254 255 268 253 250 249 249 248 247 247 247 249 248 247 248 249 248 249 248 247 245 246 246 245 246 247 244 244 244 244 243
261 260 259 256 258 257 256 255 255 255 254 253 253 255 252 250 249 249 249 247 246 246 245 246 247 246 244 244 245 249 251 250 250 249 248 245 244 244 243 244 243 242 243
261 261 261 260 258 257 258 257 256 256 254 253 253 255 252 250 250 251 249 247 246 245 245 245 246 248 246 244 243 243 244 244 245 248 248 247 245 243 242 242 243 243 243
262 261 261 260 259 258 257 255 256 255 255 256 254 253 250 250 250 249 248 248 249 249 248 246 245 247 249 249 246 246 245 254 245 245 244 245 246 245 241 242 241 240 240
261 261 260 258 257 257 257 256 255 255 255 255 255 254 254 253 252 251 249 249 250 250 248 247 248 249 249 249 249 250 250 254 251 249 246 245 245 243 241 243 241 241 241
Wind_Speed
11 12 13 13 13 13 11 11 10 11 10 11 6 8 4 4 5 3 2 1 2 2 3 3 5 4 4 7 6 7 7 4 5 1 2 2 3 3 4 4 3 6 6
11 12 12 13 13 11 11 10 9 9 8 8 6 7 5 4 4 4 2 2 1 3 4 4 6 3 5 9 7 7 6 8 5 5 2 2 3 1 6 5 4 6 9
12 12 11 12 11 10 10 8 8 8 5 5 4 5 7 2 1 5 3 1 1 2 3 3 5 5 6 5 5 6 8 5 5 5 5 2 3 1 4 6 5 7 8
12 11 11 10 10 9 8 7 5 5 5 2 2 4 3 3 6 4 3 3 2 2 2 1 3 4 6 7 7 10 8 7 5 7 3 4 4 2 2 8 5 4 5
10 10 11 9 8 8 6 6 5 4 5 7 7 6 7 6 4 3 3 3 4 5 4 3 6 5 4 5 5 8 10 7 6 7 5 4 5 8 10 4 5 5 4
8 10 10 9 8 7 7 7 6 7 7 7 7 6 6 4 8 8 5 5 6 5 4 5 7 10 13 19 16 13 3 9 8 6 4 9 10 10 6 8 9 6 4
7 9 9 9 9 9 8 7 7 7 6 7 7 6 7 7 12 13 13 7 7 7 6 7 7 7 9 7 14 20 18 20 11 4 11 10 12 11 11 12 4 4 3
8 8 9 8 8 9 9 9 8 6 7 8 8 9 9 9 15 16 16 9 9 9 10 10 9 10 11 11 13 16 15 15 11 9 9 10 9 12 8 9 6 9 8
8 8 8 8 8 9 10 9 9 8 9 9 9 10 11 10 16 15 11 9 11 13 13 10 10 12 15 19 15 14 15 14 24 32 29 27 22 23 16 10 7 10 4
7 8 7 7 8 8 8 8 8 7 9 9 11 12 14 13 21 20 11 6 10 10 12 13 21 15 22 19 12 11 15 12 12 13 13 15 18 21 21 10 4 6 6
6 6 6 7 7 7 7 8 8 9 9 10 11 11 11 13 17 23 22 11 9 10 11 11 10 24 25 26 21 12 10 10 14 12 12 8 13 12 9 10 10 4 3
4 4 5 5 5 5 6 6 7 7 8 8 9 10 10 11 19 22 23 22 17 11 11 9 11 25 26 24 17 22 21 15 10 10 9 9 10 9 8 11 11 10 12
3 4 4 4 5 5 6 6 5 6 6 6 6 6 7 7 8 20 22 21 20 13 9 15 19 20 20 19 23 21 14 9 9 9 9 9 7 4 6 6 8 12 14
2 3 3 4 4 5 5 5 5 5 5 5 6 5 5 5 6 6 6 7 13 10 11 9 15 17 20 15 11 13 10 8 8 8 7 6 3 3 5 4 4 3 6
2 2 3 3 4 4 4 3 4 1 4 3 2 2 3 4 6 9 8 5 5 7 5 7 8 8 9 9 9 9 8 7 9 7 7 6 5 5 5 3 3 5 7
3 2 1 2 2 3 3 3 12 12 12 12 12 7 4 12 11 10 14 14 12 7 5 5 6 6 7 6 6 7 7 9 7 6 6 6 6 6 6 5 5 6 7
4 3 2 3 2 3 3 3 3 6 16 16 14 12 12 10 11 17 15 15 12 9 6 6 6 6 6 6 6 6 4 4 3 5 5 4 5 5 5 5 5 6 5
5 5 3 3 3 3 2 2 2 2 2 3 10 12 12 12 11 9 8 8 5 7 3 5 5 4 4 5 5 3 3 3 3 4 5 3 4 4 5 5 4 4 3
5 4 4 3 3 3 3 2 2 2 2 0 3 4 9 11 10 11 12 4 3 3 2 5 2 3 3 4 4 4 4 4 3 4 3 4 2 5 4 4 5 5 5
3 4 4 3 2 1 2 3 2 2 2 1 1 1 3 4 4 4 4 3 4 3 2 4 2 3 4 4 4 4 4 4 4 4 3 3 3 4 4 4 4 4 2
5 4 6 3 3 3 3 3 2 3 3 2 2 3 4 4 2 1 2 2 3 3 2 3 2 3 2 3 3 3 4 3 3 3 3 3 3 4 3 4 4 3 4
6 5 5 5 4 4 4 4 4 4 3 3 1 2 4 4 3 3 3 3 2 2 2 3 3 3 3 4 4 4 4 3 3 3 3 3 3 4 3 3 3 2 2
6 6 5 3 3 4 3 2 3 3 3 2 2 2 1 2 3 2 3 2 2 1 1 2 3 2 1 2 2 4 5 5 5 5 5 3 3 3 3 3 3 2 2
6 7 6 5 4 4 4 4 3 4 3 3 3 2 3 3 3 3 3 2 2 1 2 2 2 4 3 2 2 2 2 2 3 5 6 5 4 4 3 2 4 4 3
7 7 7 7 6 5 4 4 4 4 4 4 4 3 3 3 3 3 3 2 3 3 4 3 2 4 6 7 6 6 5 6 5 5 3 4 6 7 4 3 4 2 3
7 7 6 5 5 5 5 5 4 4 5 4 4 5 5 5 4 4 4 4 4 3 4 3 5 8 8 6 8 8 8 9 7 9 6 5 5 4 4 4 5 3 4
Wind_Direction
304 306 302 296 293 296 291 285 286 285 291 294 320 295 279 148 109 108 183 274 303 343 277 263 266 263 209 203 199 193 206 206 203 86 103 91 74 118 89 70 93 87 64
311 308 302 298 300 298 294 296 290 288 286 299 327 327 290 47 68 98 59 3 345 309 300 307 277 270 255 226 198 194 211 210 139 145 133 133 107 10 81 93 62 64 78
316 309 302 300 301 302 301 299 293 304 326 319 334 294 17 349 265 76 56 351 319 287 283 295 292 279 247 223 215 205 205 184 151 144 149 154 110 130 99 72 58 72 60
316 312 308 312 311 310 311 313 320 321 334 310 13 31 356 13 44 30 38 64 84 46 350 348 312 292 267 222 202 211 191 185 147 137 126 121 116 130 130 131 104 52 73
317 320 320 320 324 326 336 350 4 7 13 14 5 6 14 18 18 43 71 79 95 87 48 61 43 356 326 274 209 194 174 171 156 158 124 132 134 162 169 155 115 117 62
321 327 329 338 340 351 355 2 15 27 26 22 15 13 14 15 49 82 93 83 77 76 81 59 45 37 36 49 57 61 181 177 168 166 175 168 164 162 146 141 132 148 114
327 336 343 348 356 0 2 15 23 28 27 28 22 20 35 38 67 83 79 70 69 62 65 67 61 43 49 54 60 66 57 57 62 157 174 162 153 154 145 134 123 91 106
344 345 351 356 1 6 16 17 19 23 31 34 29 30 39 52 67 74 76 74 71 66 61 57 61 58 63 67 68 70 64 58 64 72 78 85 103 110 109 105 103 99 79
347 343 351 2 10 14 20 20 23 32 33 31 34 35 46 49 51 51 56 68 71 66 60 51 57 56 68 88 82 71 68 60 61 73 79 85 87 97 104 109 115 112 94
342 341 354 4 17 22 23 26 25 33 41 39 37 35 39 47 49 51 45 56 63 64 59 54 59 66 62 61 80 78 75 38 54 57 61 52 57 56 59 55 95 117 118
326 349 8 7 14 18 26 24 26 33 38 36 41 35 39 40 50 53 51 48 50 58 57 53 50 60 68 66 63 76 79 84 68 65 71 44 55 53 37 52 45 46 117
325 11 11 16 20 16 30 29 31 33 42 38 41 41 32 28 51 55 60 63 55 62 59 54 61 60 59 61 62 70 75 75 70 71 68 54 59 54 48 57 57 62 57
4 20 21 25 35 31 35 35 36 31 41 41 47 47 41 32 37 46 62 63 64 64 64 73 70 64 59 55 58 60 56 56 65 73 69 63 53 55 52 67 69 68 63
64 19 26 40 34 39 51 46 51 41 44 40 42 41 26 34 38 30 42 50 52 56 64 64 75 74 70 62 50 46 48 57 77 84 81 74 51 41 54 11 58 40 71
104 56 63 58 45 41 62 82 68 71 90 71 16 10 37 41 77 84 82 61 63 79 43 39 43 47 50 47 52 51 54 58 69 71 79 81 76 79 57 7 37 43 66
136 126 99 80 55 48 37 35 67 83 79 78 77 70 18 62 66 82 78 66 62 74 54 77 78 73 72 72 72 63 41 43 44 60 62 60 68 72 74 56 64 71 80
166 168 145 125 103 95 69 75 60 16 51 46 52 57 68 67 63 63 72 61 60 70 70 54 59 52 54 53 53 51 62 43 41 66 76 74 83 72 80 74 66 71 55
177 182 167 172 148 133 134 124 98 91 51 343 9 27 47 51 56 51 60 95 69 62 77 109 112 115 113 112 107 100 89 73 64 77 79 77 67 89 79 75 70 103 93
177 180 170 162 168 173 149 130 118 114 109 348 338 24 19 23 38 33 45 81 111 84 81 89 94 103 101 99 96 86 92 92 98 106 83 96 100 113 100 95 97 87 102
187 173 161 160 143 126 132 141 139 147 149 169 5 275 336 27 30 11 32 57 81 79 82 96 69 74 83 93 96 98 91 82 80 80 85 89 79 82 97 97 81 97 75
179 171 167 146 167 175 162 180 171 156 183 187 216 229 173 108 129 93 90 78 105 113 129 117 121 111 109 112 111 100 99 100 98 113 116 106 109 100 97 96 109 104 119
171 171 173 183 166 172 180 175 176 175 175 172 228 314 87 94 123 140 140 151 167 163 166 149 147 158 164 158 151 130 128 134 136 128 120 119 112 109 98 93 87 88 87
158 162 170 169 167 155 143 164 166 159 176 174 139 120 93 136 144 164 184 188 165 163 145 124 139 162 181 159 163 158 157 183 186 160 147 140 134 133 134 143 148 126 157
163 172 177 176 166 169 173 180 175 167 164 157 159 166 174 162 179 203 205 183 177 230 204 183 179 180 179 202 198 199 196 178 155 168 152 151 165 154 143 143 174 176 153
171 173 175 177 177 182 169 167 176 173 173 173 179 176 189 179 186 203 188 181 186 185 210 205 198 200 195 196 204 211 212 208 177 167 149 149 172 179 179 173 161 155 139
172 175 173 155 165 164 167 175 185 170 179 183 180 186 186 189 190 182 185 187 197 207 209 205 209 210 208 210 211 207 204 207 198 191 175 171 175 186 181 193 178 177 173